H2SAT (HEINRICH HERTZ)

Last updated on Sat Dec 13 2025 00:02:51 GMT+0000 (Coordinated Universal Time)

1 57213U 23093A 25346.13377969 .00000011 00000+0 00000+0 0 9990 2 57213 0.0413 149.2538 0000575 196.5682 144.1104 1.00271172 9043
UTC large
Height (km)
Speed (km/s)
/
Latitude / Longitude
Inclination (degrees)
Orbital Period (minutes)
Azimuth
Elevation
Range (km)
Doppler Factor

Next 0 passes for location: London (51.5072 / 0.1276)

Sorry there are no passes over London.